This demonstration page uses our WeatherBlox Daily Observations layout. Learn more.

Left ArrowRight Arrow

39.51506, -84.39828

Hourly Observations for May 6, 2017

Temp ( °F °C ) Dew Point ( °F °C ) Humidity (%) Winds ( mph kmh ) Pressure ( in mb ) Visibility ( mi km ) Precip ( " mm )
12:15 am 00:15 Cloudy 49 9.6 41 4.9 73 73 NNW 3 6 29.71 1006 10 16 N/A
12:35 am 00:35 Cloudy 49 9.6 41 5 73 73 N N/A 29.71 1006 10 16 N/A
12:55 am 00:55 Cloudy 49 9.6 41 5 73 73 N N/A 29.71 1006 10 16 N/A
1:15 am 01:15 Mostly Cloudy 49 9.6 41 5.1 74 74 N N/A 29.71 1006 10 16 N/A
1:35 am 01:35 Partly Cloudy 48 8.7 41 5 78 78 N N/A 29.71 1006 10 16 N/A
1:55 am 01:55 Clear 47 8.2 40 4.6 78 78 N N/A 29.71 1006 10 16 N/A
2:15 am 02:15 Clear 47 8.1 40 4.7 79 79 N N/A 29.71 1006 10 16 N/A
2:35 am 02:35 Clear 44 6.8 38 3.6 80 80 N N/A 29.71 1006 10 16 N/A
2:55 am 02:55 Clear 43 6.2 38 3.1 81 81 WNW 3 6 29.71 1006 10 16 N/A
3:15 am 03:15 Clear 43 6.3 38 3.2 81 81 WNW 5 7 29.71 1006 10 16 N/A
3:35 am 03:35 Clear 43 6.2 37 2.9 80 80 WNW 5 7 29.71 1006 10 16 N/A
3:55 am 03:55 Clear 43 6.1 37 2.8 80 80 N N/A 29.71 1006 10 16 N/A
4:15 am 04:15 Clear 43 6.1 37 2.7 79 79 WNW 5 7 29.71 1006 10 16 N/A
4:35 am 04:35 Clear 42 5.6 36 2.4 80 80 WNW 5 7 29.71 1006 10 16 N/A
4:55 am 04:55 Clear 42 5.7 37 2.5 80 80 WNW 5 7 29.71 1006 10 16 N/A
5:15 am 05:15 Clear 42 5.5 36 2.2 80 80 WNW 3 6 29.71 1006 10 16 N/A
5:35 am 05:35 Clear 42 5.6 36 2.2 79 79 WNW 3 6 29.71 1006 10 16 N/A
5:55 am 05:55 Clear 42 5.5 36 2 78 78 WNW 3 6 29.71 1006 10 16 N/A
6:15 am 06:15 Clear 42 5.5 36 2.1 79 79 N N/A 29.71 1006 10 16 N/A
6:35 am 06:35 Sunny 42 5.5 36 2.1 79 79 N N/A 29.71 1006 10 16 N/A
6:55 am 06:55 Sunny 42 5.5 36 2.2 80 80 N N/A 29.74 1007 10 16 N/A
7:15 am 07:15 Sunny 42 5.8 36 2.3 78 78 N N/A 29.74 1007 10 16 N/A
7:35 am 07:35 Sunny 43 6.1 37 2.5 78 78 N N/A 29.74 1007 10 16 N/A
7:55 am 07:55 Mostly Cloudy 43 6.3 37 2.6 77 77 N N/A 29.74 1007 10 16 N/A
8:15 am 08:15 Cloudy 44 6.8 38 3.1 78 78 N N/A 29.74 1007 10 16 N/A
8:35 am 08:35 Cloudy 47 8.2 40 4.3 77 77 N N/A 29.74 1007 10 16 N/A
8:55 am 08:55 Cloudy 47 8.3 39 4.1 75 75 W 3 6 29.74 1007 10 16 N/A
9:15 am 09:15 Cloudy 49 9.6 41 5.2 74 74 N N/A 29.74 1007 10 16 N/A
9:35 am 09:35 Cloudy 49 9.6 41 5.2 74 74 N N/A 29.74 1007 10 16 N/A
9:55 am 09:55 Cloudy 49 9.6 41 5.1 74 74 SSW 5 7 29.74 1007 10 16 N/A
10:15 am 10:15 Cloudy 49 9.6 40 4.6 71 71 WSW 5 7 29.74 1007 10 16 N/A
10:35 am 10:35 Mostly Cloudy 52 11 42 5.4 69 69 W 3 6 29.74 1007 10 16 N/A
10:55 am 10:55 Mostly Cloudy 55 12.5 43 6.3 66 66 SW 6 9 29.74 1007 10 16 N/A
11:15 am 11:15 Mostly Cloudy 55 12.5 42 5.5 63 63 SSW 3 6 29.74 1007 10 16 N/A
11:35 am 11:35 Partly Cloudy 55 12.6 41 5.1 61 61 WSW 5 7 29.71 1006 10 16 N/A
11:55 am 11:55 Partly Cloudy 56 13.6 42 5.8 60 60 W 8 13 29.71 1006 10 16 N/A
12:15 pm 12:15 Partly Cloudy 56 13.5 40 4.6 55 55 WNW 7 11 29.71 1006 10 16 N/A
12:35 pm 12:35 Mostly Cloudy 57 13.8 40 4.5 54 54 W 6 9 29.71 1006 10 16 N/A
12:55 pm 12:55 Mostly Cloudy 59 14.8 40 4.6 51 51 NW 12 19 29.71 1006 10 16 N/A
1:15 pm 13:15 Partly Cloudy 60 15.3 40 4.5 49 49 WNW 9 15 29.71 1006 10 16 N/A
1:35 pm 13:35 Mostly Cloudy 59 15.1 37 2.6 43 43 NW 5 7 29.71 1006 10 16 N/A
1:55 pm 13:55 Mostly Cloudy 60 15.3 37 2.5 42 42 W 7 11 29.71 1006 10 16 N/A
2:15 pm 14:15 Cloudy 58 14.6 35 1.9 42 42 WNW 7 11 29.71 1006 10 16 N/A
2:35 pm 14:35 Mostly Cloudy 59 15.2 35 1.6 40 40 WNW 9 15 29.71 1006 10 16 N/A
2:55 pm 14:55 Mostly Cloudy 60 15.7 33 0.7 36 36 NW 12 19 29.71 1006 10 16 N/A
3:15 pm 15:15 Mostly Cloudy 60 15.6 34 1 37 37 NW 7 11 29.71 1006 10 16 N/A
3:35 pm 15:35 Mostly Cloudy 60 15.3 35 1.9 41 41 NW 12 19 29.71 1006 10 16 N/A
3:55 pm 15:55 Partly Cloudy 61 16 34 1.3 37 37 W 13 20 29.71 1006 10 16 N/A
4:15 pm 16:15 Mostly Cloudy 61 16.2 33 0.7 35 35 WNW 13 20 29.68 1005 10 16 N/A
4:35 pm 16:35 Mostly Cloudy 62 16.6 32 0.2 33 33 NW 13 20 29.71 1006 10 16 N/A
4:55 pm 16:55 Mostly Cloudy 61 16.2 34 1.1 36 36 NW 9 15 29.71 1006 10 16 N/A
5:15 pm 17:15 Mostly Cloudy 61 16 29 -1.7 30 30 NW 14 22 29.71 1006 10 16 N/A
5:35 pm 17:35 Mostly Cloudy 61 15.9 29 -1.9 30 30 WNW 12 19 29.71 1006 10 16 N/A
5:55 pm 17:55 Mostly Cloudy 61 16.2 32 undefined 33 33 WNW 13 20 29.71 1006 10 16 N/A
6:15 pm 18:15 Cloudy 60 15.8 30 -1 32 32 WNW 12 19 29.71 1006 10 16 N/A
6:35 pm 18:35 Cloudy 60 15.3 30 -1.3 32 32 NW 8 13 29.71 1006 10 16 N/A
6:55 pm 18:55 Cloudy 60 15.3 30 -1.3 32 32 WNW 13 20 29.71 1006 10 16 N/A
7:15 pm 19:15 Cloudy 60 15.3 32 undefined 35 35 NW 8 13 29.71 1006 10 16 N/A
7:35 pm 19:35 Cloudy 60 15.3 32 undefined 35 35 NW 8 13 29.74 1007 10 16 N/A
7:55 pm 19:55 Partly Cloudy 58 14.5 33 0.5 39 39 WNW 10 17 29.74 1007 10 16 N/A
8:15 pm 20:15 Sunny 57 13.8 30 -1.2 36 36 WNW 12 19 29.74 1007 10 16 N/A
8:35 pm 20:35 Partly Cloudy 56 13.3 31 -0.3 39 39 WNW 8 13 29.77 1008 10 16 N/A
8:55 pm 20:55 Clear 55 12.5 34 0.9 45 45 W 6 9 29.80 1009 10 16 N/A
9:15 pm 21:15 Clear 55 12.5 35 1.4 47 47 WNW 7 11 29.80 1009 10 16 N/A
9:35 pm 21:35 Clear 55 12.5 36 2.2 50 50 WNW 7 11 29.80 1009 10 16 N/A
9:55 pm 21:55 Clear 52 10.9 35 1.5 53 53 WNW 6 9 29.83 1010 10 16 N/A
10:15 pm 22:15 Clear 51 10.4 34 1.1 53 53 WNW 7 11 29.83 1010 10 16 N/A
10:35 pm 22:35 Clear 52 10.9 32 undefined 47 47 NW 7 11 29.83 1010 10 16 N/A
10:55 pm 22:55 Clear 49 9.6 30 -1.3 47 47 WNW 8 13 29.85 1011 10 16 N/A
11:15 pm 23:15 Clear 49 9.6 28 -2.1 44 44 NW 8 13 29.85 1011 10 16 N/A
11:35 pm 23:35 Clear 49 9.6 29 -1.7 46 46 WNW 7 11 29.85 1011 10 16 N/A
11:55 pm 23:55 Clear 49 9.6 29 -1.9 45 45 WNW 6 9 29.85 1011 10 16 N/A

Powered by AerisWeather